RH
98 96 97 97 97 94 95 95 92 83 79 78 76 79 78 76 74 74 76 78 77 78 77 76 78 83 84
98 99 98 95 95 95 90 83 87 80 82 79 75 80 77 73 69 69 69 70 75 77 79 80 80 84 86
100 99 100 97 98 94 91 89 74 84 77 74 73 76 79 68 64 64 66 68 68 73 78 79 80 81 84
99 100 98 98 97 98 99 95 91 67 74 66 74 73 75 65 60 61 63 64 66 66 73 76 79 79 80
99 100 100 99 99 98 99 98 95 85 75 75 78 76 83 66 59 61 60 62 66 63 66 72 75 77 76
100 99 98 97 98 98 98 99 99 91 86 84 73 78 81 73 61 58 59 60 65 64 60 66 71 73 73
95 94 96 96 96 98 98 97 97 89 86 89 72 71 66 70 60 59 59 59 65 65 61 63 64 66 68
93 93 94 94 94 92 93 94 80 77 81 91 72 78 82 77 61 60 59 59 65 67 68 67 77 76 75
82 84 85 85 87 92 98 94 94 86 81 75 78 76 78 79 79 60 62 60 63 66 66 71 74 75 84
88 84 86 86 83 92 95 96 95 91 86 86 81 80 87 84 94 94 93 71 70 70 72 70 70 91 92
95 96 95 93 90 92 94 95 95 96 84 89 97 98 96 96 88 94 94 92 93 88 70 64 63 76 93
93 97 98 96 93 95 94 97 94 89 85 94 97 94 98 98 94 87 92 91 92 92 94 74 69 66 63
83 87 94 94 95 97 98 98 97 96 98 98 98 100 97 97 97 96 95 91 98 97 98 97 96 98 94
78 74 85 93 96 96 98 99 98 99 98 98 99 96 99 98 97 97 98 95 98 98 98 98 93 92 94
81 82 79 84 89 96 95 99 98 99 97 99 96 96 98 94 97 98 98 98 98 98 96 98 98 94 92
85 84 83 87 90 93 97 98 98 99 99 100 100 97 92 89 88 98 99 97 98 98 98 98 98 94 91
83 86 88 89 85 90 93 95 98 98 98 99 98 96 96 90 92 80 95 98 99 99 98 98 98 96 91
Wind_Speed
2 2 3 5 3 3 3 2 1 1 2 3 2 1 1 2 3 5 7 9 9 9 11 12 14 16 24
3 2 2 3 4 3 2 1 2 3 5 5 4 4 3 1 3 5 6 4 7 9 10 12 14 15 21
3 2 2 2 2 1 3 2 1 4 5 5 5 5 6 2 2 3 5 8 9 10 11 12 13 14 17
4 3 3 3 3 3 2 2 3 3 5 4 4 2 5 3 2 3 4 6 7 9 10 10 12 13 16
3 3 3 3 4 3 3 3 3 3 2 2 2 1 2 3 1 1 5 6 8 8 8 9 10 12 14
3 3 5 4 4 4 3 3 2 2 3 2 3 2 2 1 5 1 3 4 7 7 6 6 8 10 11
5 5 4 6 6 5 5 4 4 3 3 3 2 3 1 1 1 0 1 4 5 5 4 5 6 7 8
6 6 5 6 7 6 6 4 3 2 1 0 2 1 1 2 6 3 2 2 3 2 5 6 10 10 10
7 9 10 11 9 6 4 5 3 4 2 4 3 2 1 1 3 5 4 2 2 2 4 5 7 8 7
3 4 6 8 15 7 7 4 2 1 4 4 3 2 2 1 1 1 1 3 4 3 4 5 6 3 3
4 3 2 3 3 3 5 4 4 2 4 4 3 2 3 1 1 2 2 0 1 2 3 2 3 4 2
5 3 3 3 2 3 4 3 2 4 5 5 3 4 4 0 2 1 2 2 2 1 1 2 3 3 0
6 5 4 4 5 4 4 5 4 4 3 3 3 4 4 3 3 2 3 2 1 2 1 1 1 1 2
6 4 4 5 3 3 2 3 2 2 4 3 4 5 2 2 3 1 1 2 0 1 1 1 1 2 2
4 5 6 7 4 3 3 3 3 4 4 1 3 4 2 4 1 2 2 1 2 2 2 1 2 3 3
6 7 7 7 6 4 2 3 3 3 4 3 3 3 3 3 7 2 1 2 2 3 1 2 3 2 3
7 7 6 6 10 6 5 4 3 3 3 3 3 4 3 2 1 11 4 2 2 1 2 2 2 3 2
Wind_Direction
108 126 120 134 122 113 139 139 106 169 177 236 234 132 95 55 11 360 8 8 335 343 332 333 336 342 343
146 140 142 163 152 159 167 159 194 248 248 241 232 192 196 138 41 21 21 349 339 346 339 349 349 352 354
151 132 121 144 136 179 176 191 235 235 248 225 242 220 200 167 47 353 2 349 348 344 341 353 359 4 8
151 145 149 153 158 167 196 188 224 233 236 238 224 237 190 162 78 346 6 338 1 342 340 352 357 14 20
156 148 158 153 179 172 201 187 218 205 219 238 229 258 239 181 203 315 345 340 354 352 337 346 9 12 28
168 180 168 171 167 165 156 169 232 177 168 261 185 219 231 215 204 130 330 355 348 349 343 353 16 21 27
170 184 171 174 155 163 174 164 200 179 153 188 168 170 268 264 248 261 343 338 341 355 7 18 33 39 34
172 182 178 176 173 174 173 142 87 98 131 116 12 351 80 286 268 234 201 286 323 36 57 63 64 53 48
161 178 190 176 160 128 140 153 171 191 184 145 193 127 47 298 263 253 194 232 224 101 98 70 56 52 31
133 149 155 180 173 168 157 167 138 59 213 142 132 134 16 288 252 341 50 259 157 122 90 65 69 62 52
140 128 113 130 128 163 176 152 149 196 205 106 143 144 109 214 282 244 205 209 8 2 342 340 63 83 63
146 158 164 169 185 138 124 122 101 173 163 119 163 141 119 319 192 228 251 221 188 225 240 314 47 28 7
177 180 181 165 127 103 84 89 72 82 110 147 161 127 123 175 176 192 153 237 210 159 184 186 196 66 31
186 169 141 144 144 151 134 105 88 102 60 160 135 115 134 152 131 184 191 170 223 221 175 281 261 226 224
158 167 179 169 167 154 125 124 137 145 177 248 103 111 133 144 131 189 169 205 219 182 98 334 286 241 234
168 175 181 178 164 169 122 138 141 165 158 188 129 75 25 269 195 149 170 189 208 189 125 110 302 298 231
180 176 175 179 179 175 176 148 147 160 174 169 125 119 127 203 284 196 156 205 153 137 160 156 190 267 270